[[{"header":{"parameterUnit":"m.s-1","parameterCategory":1,"la1":30.2991,"la2":30.254,"lo1":-89.0895,"lo2":-89.0444,"dy":0.0017,"dx":0.0017,"nx":28,"ny":28,"refTime":"2025-02-04T09:00:00:Z","depth":0,"parameterNumber":2,"parameterNumberName":"U-component_of_WINDS"},"data":[0,0,0,0,0,0,0,0,0,0,0,0,0,0,0,0,0,0,0,0,0,0,0,0,0,0,0,0,0,0,0,0,0,0,0,0,0,0,0,0,0,0,0,0,0,0,0,0,0,0,0,0,0,0,0,0,0,0,-0.9006,-0.9006,0,-0.8972,-0.8972,-0.8972,-0.8928,-0.8927,-0.8926,-0.8926,-0.8891,-0.8891,-0.8891,0,0,0,0,0,0,0,0,0,0,0,0,0,-0.9034,-0.9033,-0.9006,-0.9006,-0.9005,-0.8973,-0.8972,-0.8972,-0.8928,-0.8927,-0.8926,-0.8925,-0.8891,-0.8891,-0.8891,0,0,0,0,0,0,0,0,0,0,0,0,0,-0.9013,-0.9033,-0.9006,-0.898,-0.8977,-0.8973,-0.8972,-0.8972,-0.8928,-0.8927,-0.8926,-0.8925,-0.8891,-0.8891,-0.8891,-0.891,0,0,-0.8889,-0.8889,0,0,0,0,0,0,0,0,-0.9014,-0.9012,-0.8984,-0.8981,-0.8978,-0.8953,-0.8969,-0.8951,-0.8928,-0.8947,-0.8926,-0.8924,-0.8913,-0.891,-0.8906,-0.8908,-0.8907,-0.8889,-0.8889,-0.8889,-0.8889,0,0,0,0,0,0,0,-0.9016,-0.9013,-0.8993,-0.8984,-0.898,-0.897,-0.8965,-0.8965,-0.8936,-0.8945,-0.8942,-0.8938,-0.8911,-0.8907,-0.8905,-0.8906,-0.8889,-0.8889,-0.8889,-0.8889,-0.8923,-0.8924,0,0,0,0,0,0,-0.9021,-0.9015,-0.8994,-0.8992,-0.8994,-0.897,-0.8965,-0.8962,-0.8936,-0.8931,-0.8939,-0.8936,-0.8908,-0.8906,-0.8904,-0.8924,-0.8889,-0.8889,-0.8888,-0.8921,-0.8923,-0.8924,0,0,0,0,0,0,-0.9022,-0.902,-0.8995,-0.9002,-0.8999,-0.8971,-0.8968,-0.8962,-0.8958,-0.8932,-0.8926,-0.894,-0.8907,-0.8905,-0.8909,-0.8923,-0.8889,-0.8888,-0.892,-0.8922,-0.8923,-0.8966,0,0,0,0,0,0,-0.9023,-0.902,-0.9027,-0.9003,-0.8998,-0.9,-0.8969,-0.8962,-0.8958,-0.8954,-0.8931,-0.8927,-0.8906,-0.891,-0.8908,-0.8922,-0.8888,-0.8919,-0.8921,-0.8923,-0.8963,-0.8969,-0.8974,0,0,0,0,0,-0.9024,-0.904,-0.9027,-0.9025,-0.9006,-0.9001,-0.8999,-0.8975,-0.8959,-0.8966,-0.8949,-0.8927,-0.8922,-0.891,-0.8909,-0.8922,-0.8918,-0.892,-0.8923,-0.8961,-0.8968,-0.8974,0,0,0,0,0,0,-0.9066,-0.9036,-0.9022,-0.9031,-0.9019,-0.8994,-0.9001,-0.8983,-0.8975,-0.8972,-0.8942,-0.8938,-0.8946,-0.8934,-0.8922,-0.894,-0.8917,-0.8919,-0.8946,-0.8953,-0.8958,-0.896,-0.8888,0,0,0,0,0,-0.9077,-0.9075,-0.9049,-0.906,-0.9055,-0.9029,-0.9026,-0.9009,-0.8995,-0.899,-0.8973,-0.8961,-0.8957,-0.8954,-0.8949,-0.8962,-0.8956,-0.8971,-0.8976,-0.898,-0.8982,-0.8988,-0.8994,-0.8932,-0.8932,-0.8932,0,0,-0.9098,-0.9082,-0.9082,-0.9068,-0.9056,-0.9056,-0.9025,-0.9026,-0.9025,-0.899,-0.8993,-0.8981,-0.8965,-0.8974,-0.8977,-0.8965,-0.8998,-0.8984,-0.8987,-0.8987,-0.8992,-0.8998,-0.9003,-0.8934,-0.8934,-0.8933,0,0,-0.9136,-0.9124,-0.9131,-0.912,-0.9104,-0.9087,-0.9089,-0.9067,-0.9058,-0.906,-0.9034,-0.9034,-0.9026,-0.9016,-0.901,-0.9047,-0.9027,-0.9046,-0.9073,-0.9079,-0.9084,-0.9088,-0.9101,-0.9106,-0.9048,-0.9048,-0.9048,0,-0.9164,-0.9162,-0.9137,-0.9139,-0.9133,-0.9103,-0.911,-0.9101,-0.9084,-0.9081,-0.9068,-0.9059,-0.9046,-0.9052,-0.9061,-0.9058,-0.9059,-0.9047,-0.9086,-0.909,-0.9093,-0.9104,-0.9109,-0.9051,-0.905,-0.905,-0.905,0,-0.9197,-0.9196,-0.9204,-0.9188,-0.9184,-0.9188,-0.9165,-0.9163,-0.9147,-0.9132,-0.9135,-0.912,-0.911,-0.9111,-0.9095,-0.9115,-0.9108,-0.9091,-0.9067,-0.9102,-0.9112,-0.9116,-0.9054,-0.9053,-0.9052,-0.9052,0,0,-0.9259,-0.923,-0.9233,-0.9226,-0.9206,-0.9205,-0.9209,-0.92,-0.9199,-0.9189,-0.9191,-0.9187,-0.9171,-0.9165,-0.9148,-0.9153,-0.9183,-0.9135,-0.9134,-0.9144,-0.9203,-0.9215,-0.9221,-0.917,-0.9171,-0.9171,-0.9204,0,-0.9292,-0.9296,-0.9275,-0.9285,-0.9283,-0.9255,-0.9259,-0.9248,-0.9234,-0.9231,-0.9217,-0.9214,-0.9193,-0.9189,-0.9194,-0.9178,-0.9194,-0.9176,-0.9171,-0.9172,-0.9174,-0.9226,-0.9239,-0.927,-0.9208,-0.9209,-0.9209,0,-0.9331,-0.9323,-0.9333,-0.9313,-0.9312,-0.9315,-0.9306,-0.9304,-0.9291,-0.928,-0.9274,-0.9255,-0.9257,-0.9236,-0.9239,-0.9227,-0.9225,-0.9217,-0.9218,-0.9215,-0.9191,-0.9224,-0.928,-0.9284,-0.9216,-0.9215,-0.9215,0,-0.9373,-0.9365,-0.937,-0.9365,-0.9343,-0.9346,-0.9337,-0.9323,-0.9319,-0.9311,-0.9308,-0.9301,-0.9297,-0.9292,-0.9271,-0.9258,-0.9277,-0.9254,-0.9268,-0.9269,-0.9272,-0.9272,-0.9327,-0.9273,-0.9273,-0.9273,-0.9273,0,-0.9412,-0.9419,-0.9389,-0.9392,-0.9399,-0.9375,-0.9383,-0.9371,-0.936,-0.936,-0.9336,-0.9337,-0.931,-0.9308,-0.9293,-0.9298,-0.9296,-0.9288,-0.9283,-0.9289,-0.929,-0.9286,-0.9282,-0.9274,-0.9274,-0.9274,-0.9273,0,-0.946,-0.944,-0.9444,-0.9423,-0.9418,-0.9424,-0.9406,-0.9408,-0.9394,-0.9395,-0.9394,-0.9371,-0.9368,-0.9348,-0.934,-0.9329,-0.9339,-0.9331,-0.9344,-0.934,-0.9355,-0.9354,-0.9409,-0.9414,-0.9358,-0.9359,-0.9359,0,-0.9485,-0.9489,-0.9469,-0.9468,-0.946,-0.9458,-0.9454,-0.9432,-0.9429,-0.9415,-0.9419,-0.9414,-0.9408,-0.9404,-0.9387,-0.9381,-0.9372,-0.9392,-0.9371,-0.9377,-0.9371,-0.937,-0.937,-0.9396,-0.9396,-0.9397,-0.9397,0,-0.9531,-0.9521,-0.9517,-0.9509,-0.9506,-0.9499,-0.949,-0.9491,-0.9466,-0.9464,-0.946,-0.9456,-0.9448,-0.9443,-0.9435,-0.9426,-0.9407,-0.9405,-0.9407,-0.9412,-0.9419,-0.9415,-0.9354,-0.9403,-0.9402,-0.9402,-0.9402,-0.9401,-0.9567,-0.957,-0.9556,-0.9552,-0.9544,-0.9537,-0.9538,-0.9524,-0.9521,-0.9513,-0.95,-0.9498,-0.9486,-0.9473,-0.9465,-0.9464,-0.9453,-0.9457,-0.9458,-0.9459,-0.9462,-0.9421,-0.9462,-0.9462,-0.9462,-0.9462,-0.9462,0,-0.9611,-0.9601,-0.9598,-0.9587,-0.9584,-0.9569,-0.9559,-0.9557,-0.9556,-0.9546,-0.9542,-0.9538,-0.9533,-0.9517,-0.9511,-0.9513,-0.9504,-0.9512,-0.9511,-0.9509,-0.9472,-0.947,-0.9519,-0.9519,-0.9519,-0.9519,-0.9519,-0.9519,-0.9633,-0.9637,-0.9626,-0.9626,-0.9617,-0.9615,-0.961,-0.9604,-0.9596,-0.9593,-0.9589,-0.9579,-0.9567,-0.956,-0.9555,-0.955,-0.9549,-0.9559,-0.9551,-0.9517,-0.9511,-0.9506,-0.9504,-0.9559,-0.9559,-0.9588,-0.9588,-0.9588]},{"header":{"parameterUnit":"m.s-1","parameterCategory":1,"la1":30.2991,"la2":30.254,"lo1":-89.0895,"lo2":-89.0444,"dy":0.0017,"dx":0.0017,"nx":28,"ny":28,"refTime":"2025-02-04T09:00:00:Z","depth":0,"parameterNumber":3,"parameterNumberName":"V-component_of_WINDS"},"data":[0,0,0,0,0,0,0,0,0,0,0,0,0,0,0,0,0,0,0,0,0,0,0,0,0,0,0,0,0,0,0,0,0,0,0,0,0,0,0,0,0,0,0,0,0,0,0,0,0,0,0,0,0,0,0,0,0,0,1.1169,1.1168,0,1.1139,1.1139,1.1139,1.1148,1.1148,1.1149,1.1149,1.1117,1.1115,1.1114,0,0,0,0,0,0,0,0,0,0,0,0,0,1.1232,1.1231,1.1169,1.1168,1.1168,1.1139,1.1139,1.1139,1.1147,1.1148,1.1149,1.115,1.1117,1.1116,1.1114,0,0,0,0,0,0,0,0,0,0,0,0,0,1.1204,1.1231,1.1169,1.1169,1.1169,1.1139,1.1139,1.1138,1.1147,1.1148,1.1149,1.115,1.1118,1.1116,1.1114,1.1081,0,0,1.1107,1.1106,0,0,0,0,0,0,0,0,1.1205,1.1201,1.1169,1.1169,1.1169,1.1148,1.1149,1.1119,1.1147,1.1155,1.1149,1.1151,1.1126,1.1124,1.1116,1.108,1.1079,1.1107,1.1106,1.1105,1.1104,0,0,0,0,0,0,0,1.1207,1.1203,1.1157,1.1169,1.1169,1.1171,1.1168,1.1144,1.1136,1.1155,1.1155,1.1152,1.1126,1.1118,1.1115,1.1078,1.1107,1.1105,1.1104,1.1103,1.1016,1.1015,0,0,0,0,0,0,1.121,1.1204,1.1158,1.1156,1.119,1.1169,1.1165,1.1154,1.1136,1.1134,1.1151,1.1152,1.1121,1.1118,1.1114,1.1076,1.1105,1.1103,1.1101,1.1017,1.1016,1.1015,0,0,0,0,0,0,1.1211,1.1206,1.1159,1.118,1.1175,1.1167,1.1154,1.1153,1.1144,1.1133,1.1132,1.1144,1.1122,1.1117,1.109,1.1075,1.1102,1.11,1.1018,1.1017,1.1015,1.1,0,0,0,0,0,0,1.1213,1.1206,1.1194,1.118,1.1174,1.1136,1.1153,1.1151,1.1141,1.1142,1.1126,1.1125,1.1122,1.1093,1.1088,1.1073,1.1098,1.102,1.1018,1.1016,1.1002,1.0998,1.0995,0,0,0,0,0,1.1215,1.119,1.1193,1.1187,1.1158,1.1135,1.1131,1.1129,1.114,1.1127,1.1121,1.1125,1.1078,1.109,1.1084,1.1068,1.102,1.1018,1.1016,1.1003,1.0999,1.0995,0,0,0,0,0,0,1.12,1.1188,1.1191,1.1161,1.1149,1.1137,1.1121,1.1125,1.1109,1.1111,1.1109,1.1105,1.1078,1.107,1.1085,1.1037,1.1051,1.1047,1.1043,1.1039,1.1036,1.1038,1.1096,0,0,0,0,0,1.1194,1.1177,1.1166,1.114,1.1134,1.1129,1.1118,1.1119,1.1106,1.1101,1.1092,1.1079,1.1061,1.105,1.1033,1.1001,1.0998,1.0987,1.0984,1.0981,1.0978,1.0962,1.0957,1.1007,1.1007,1.1007,0,0,1.118,1.1171,1.116,1.1137,1.1128,1.111,1.1124,1.1104,1.1091,1.1097,1.1072,1.1065,1.1051,1.1022,1.1008,1.1014,1.0964,1.0978,1.0976,1.0975,1.0959,1.0955,1.095,1.1006,1.1006,1.1006,0,0,1.1145,1.1136,1.1114,1.1105,1.1092,1.1089,1.1083,1.1071,1.1067,1.1041,1.1046,1.103,1.1,1.099,1.0981,1.0944,1.0948,1.0939,1.0921,1.0906,1.0902,1.0898,1.0886,1.0882,1.0936,1.0936,1.0936,0,1.1129,1.1102,1.1102,1.1083,1.1073,1.1079,1.1057,1.1048,1.103,1.1023,1.1031,1.0994,1.0984,1.0954,1.0945,1.0937,1.0932,1.094,1.0902,1.0899,1.0896,1.0884,1.0879,1.0935,1.0935,1.0935,1.0935,0,1.1084,1.1065,1.1049,1.1033,1.1021,1.1001,1.0998,1.0986,1.0987,1.0983,1.0958,1.0947,1.0929,1.0922,1.0922,1.0892,1.0896,1.0903,1.0916,1.089,1.0879,1.0874,1.0933,1.0934,1.0934,1.0934,0,0,1.1037,1.1023,1.1017,1.101,1.0997,1.0982,1.0962,1.0946,1.0936,1.0923,1.0907,1.0882,1.0889,1.0879,1.0878,1.0865,1.0838,1.0873,1.0873,1.0868,1.0805,1.08,1.0795,1.0841,1.084,1.0839,1.0806,0,1.1002,1.0968,1.0968,1.0936,1.092,1.0926,1.0909,1.0899,1.0895,1.0881,1.0876,1.0859,1.0869,1.0863,1.085,1.0844,1.0825,1.0846,1.0825,1.0824,1.0829,1.0789,1.0783,1.0753,1.0802,1.0801,1.08,0,1.0956,1.0943,1.091,1.0901,1.0894,1.0878,1.0864,1.085,1.0839,1.0837,1.0827,1.0829,1.0809,1.0823,1.0796,1.081,1.0802,1.0798,1.0797,1.0795,1.0811,1.0786,1.0743,1.0738,1.0794,1.0794,1.0795,0,1.0927,1.0901,1.0879,1.0873,1.0861,1.085,1.0844,1.0835,1.0825,1.0812,1.0806,1.0791,1.0783,1.0771,1.0769,1.0779,1.0742,1.0756,1.074,1.074,1.0731,1.0732,1.0686,1.0725,1.0726,1.0726,1.0726,0,1.0887,1.0867,1.0866,1.0852,1.083,1.083,1.0808,1.0803,1.0795,1.078,1.0785,1.0771,1.0769,1.0755,1.0753,1.0731,1.0727,1.0725,1.0725,1.0725,1.0726,1.072,1.0722,1.0724,1.0725,1.0725,1.0725,0,1.0851,1.0849,1.0825,1.0817,1.0814,1.0798,1.0791,1.0777,1.0775,1.0756,1.0752,1.0747,1.0731,1.0728,1.0708,1.0707,1.0682,1.0683,1.0686,1.0686,1.0671,1.0672,1.062,1.0613,1.0656,1.0656,1.0655,0,1.0826,1.0811,1.0801,1.0792,1.0787,1.0772,1.0763,1.0763,1.0753,1.0741,1.0729,1.0714,1.0701,1.0675,1.0669,1.0655,1.0656,1.0639,1.0654,1.0655,1.0657,1.0658,1.0657,1.0636,1.0636,1.0635,1.0635,0,1.0782,1.0783,1.077,1.0757,1.0747,1.0736,1.0726,1.0719,1.0718,1.0707,1.0691,1.0681,1.0662,1.0647,1.0633,1.0627,1.0631,1.0631,1.0626,1.0626,1.0628,1.0628,1.0678,1.0632,1.0632,1.0632,1.0632,1.0633,1.0751,1.0739,1.0731,1.0716,1.071,1.0701,1.0689,1.0685,1.0672,1.0657,1.0658,1.0641,1.0632,1.0613,1.0606,1.0593,1.0598,1.0592,1.059,1.0589,1.0588,1.0631,1.059,1.059,1.059,1.059,1.059,0,1.0709,1.0704,1.0691,1.0678,1.0668,1.0674,1.0664,1.0654,1.0639,1.063,1.0619,1.0601,1.0586,1.0581,1.0567,1.0557,1.0559,1.0553,1.0554,1.0553,1.0583,1.0589,1.0552,1.0552,1.0552,1.0552,1.0552,1.0552,1.0685,1.0665,1.0664,1.0641,1.0636,1.062,1.0614,1.0606,1.06,1.058,1.0569,1.0566,1.0558,1.0544,1.0531,1.053,1.0525,1.0519,1.0518,1.0547,1.055,1.0554,1.0559,1.0517,1.0517,1.0489,1.0489,1.0489]}]]